Weather History for Buena Vista, CO

Change the Weather History Date:

Wednesday, April 17, 2013

  Actual Average (KLXV) Record (KLXV)
Temperature  
Mean Temperature 29 °F -  
Max Temperature 43 °F 44 °F 60 °F (1987)
Min Temperature 15 °F 19 °F 1 °F (1999)
Degree Days  
Heating Degree Days 36 34  
Month to date heating degree days 609  
Since 1 July heating degree days 9592  
Cooling Degree Days 0 0  
Month to date cooling degree days 0  
Year to date cooling degree days 0  
Moisture  
Dew Point 21 °F    
Average Humidity 75    
Maximum Humidity 90    
Minimum Humidity 38    
Precipitation  
Precipitation 0.00 in 0.04 in 0.50 in (2009)
Month to date precipitation 0.61  
Year to date precipitation 2.87  
Sea Level Pressure  
Sea Level Pressure 29.78 in    
Wind  
Wind Speed 8 mph (ESE)    
Max Wind Speed 29 mph    
Max Gust Speed 39 mph    
Visibility 8 miles    
Events Snow    
T = Trace of Precipitation, MM = Missing Value Source: NWS Daily Summary

Daily Weather History Graph

Daily Weather History Graph

Search for Another Location

Airport:

Trip Planner

Search our weather history database for the weather conditions in past years. The results will help you decide how hot, cold, wet, or windy it might be!

Date:

Astronomy

Apr. 17, 2013 Rise Set
Actual Time 6:24 AM MDT 7:43 PM MDT
Civil Twilight 5:57 AM MDT 8:11 PM MDT
Nautical Twilight 5:24 AM MDT 8:44 PM MDT
Astronomical Twilight 4:49 AM MDT 9:19 PM MDT
Moon 11:42 AM MDT (4/17) 1:22 AM MDT (4/17)
Length of Visible Light 14h 14m
Length of Day
13h 18m
Waxing Crescent, 43% of the Moon is Illuminated
Apr 17
Waxing Crescent
Apr 18
First Quarter
Apr 25
Full
May 2
Last Quarter
May 9
New

Hourly Weather History & Observations

Time (MDT) Temp. Windchill Dew Point Humidity Pressure Visibility Wind Dir Wind Speed Gust Speed Precip Events Conditions
12:15 AM 30.9 °F 22.2 °F 24.8 °F 78% 29.82 in 10.0 mi ESE 10.4 mph - N/A   Overcast
12:35 AM 30.2 °F 20.2 °F 24.8 °F 80% 29.82 in 10.0 mi SE 12.7 mph - N/A   Overcast
12:55 AM 29.5 °F 19.9 °F 24.8 °F 83% 29.82 in 10.0 mi ESE 11.5 mph - N/A   Overcast
1:15 AM 28.9 °F 19.2 °F 24.8 °F 84% 29.83 in 10.0 mi ESE 11.5 mph - N/A   Overcast
1:35 AM 28.4 °F 19.7 °F 24.8 °F 86% 29.82 in 10.0 mi ESE 9.2 mph - N/A   Overcast
1:55 AM 27.9 °F 19.8 °F 24.6 °F 88% 29.82 in 10.0 mi SE 8.1 mph - N/A   Overcast
2:15 AM 27.5 °F 20.2 °F 24.8 °F 90% 29.82 in 10.0 mi SE 6.9 mph - N/A   Overcast
2:35 AM 28.4 °F 23.3 °F 25.3 °F 88% 29.81 in 10.0 mi ESE 4.6 mph - N/A   Overcast
2:55 AM 28.4 °F - 25.5 °F 89% 29.81 in 10.0 mi Calm Calm - N/A   Overcast
3:15 AM 28.4 °F 24.6 °F 25.5 °F 89% 29.81 in 10.0 mi South 3.5 mph - N/A   Overcast
3:35 AM 28.4 °F - 25.3 °F 88% 29.79 in 10.0 mi Calm Calm - N/A   Overcast
3:55 AM 28.8 °F 23.7 °F 25.7 °F 88% 29.78 in 10.0 mi East 4.6 mph - N/A   Overcast
4:15 AM 28.8 °F 25.0 °F 25.3 °F 87% 29.79 in 10.0 mi ESE 3.5 mph - N/A   Overcast
4:35 AM 29.1 °F 23.0 °F 25.5 °F 86% 29.78 in 10.0 mi East 5.8 mph - N/A   Overcast
4:55 AM 28.9 °F 23.9 °F 24.8 °F 84% 29.77 in 10.0 mi East 4.6 mph - N/A   Overcast
5:15 AM 29.1 °F - 24.8 °F 84% 29.77 in 10.0 mi Calm Calm - N/A   Overcast
5:35 AM 28.9 °F 25.2 °F 24.8 °F 84% 29.77 in 10.0 mi SSE 3.5 mph - N/A   Overcast
5:55 AM 28.4 °F - 24.6 °F 86% 29.77 in 10.0 mi Calm Calm - N/A   Overcast
6:15 AM 28.4 °F - 24.6 °F 86% 29.76 in 10.0 mi Calm Calm - N/A   Overcast
6:35 AM 28.4 °F - 24.8 °F 86% 29.76 in 10.0 mi Calm Calm - N/A   Overcast
6:55 AM 28.4 °F - 24.8 °F 86% 29.75 in 7.0 mi Calm Calm - N/A   Overcast
7:15 AM 28.8 °F - 24.8 °F 85% 29.75 in 10.0 mi Calm Calm - N/A   Overcast
7:35 AM 28.8 °F - 25.2 °F 86% 29.75 in 7.0 mi Calm Calm - N/A   Overcast
8:15 AM 28.4 °F 23.3 °F 25.5 °F 89% 29.74 in 1.5 mi ESE 4.6 mph - N/A Snow Light Snow
8:35 AM 28.9 °F 21.9 °F 25.7 °F 88% 29.74 in 5.0 mi SE 6.9 mph - N/A Snow Light Snow
8:55 AM 28.8 °F 20.2 °F 25.7 °F 88% 29.74 in 1.0 mi SE 9.2 mph - N/A Snow Light Snow
9:15 AM 28.4 °F 19.7 °F 24.8 °F 86% 29.74 in 1.2 mi South 9.2 mph - N/A Snow Light Snow
9:35 AM 29.7 °F 21.3 °F 25.5 °F 85% 29.73 in 3.0 mi SE 9.2 mph - N/A Snow Light Snow
9:55 AM 30.7 °F - 25.2 °F 80% 29.72 in 10.0 mi Calm Calm - N/A   Overcast
10:15 AM 30.9 °F 27.5 °F 25.0 °F 79% 29.72 in 10.0 mi ESE 3.5 mph - N/A   Overcast
10:35 AM 32.4 °F 27.9 °F 27.0 °F 80% 29.72 in 10.0 mi East 4.6 mph - N/A   Overcast
10:55 AM 32.7 °F - 27.0 °F 79% 29.70 in 10.0 mi Calm Calm - N/A   Mostly Cloudy
11:15 AM 33.1 °F - 27.0 °F 78% 29.69 in 10.0 mi Calm Calm - N/A   Mostly Cloudy
11:35 AM 33.6 °F 28.4 °F 26.1 °F 74% 29.70 in 10.0 mi SE 5.8 mph - N/A   Overcast
11:55 AM 33.8 °F 28.6 °F 25.9 °F 73% 29.69 in 10.0 mi SSE 5.8 mph - N/A   Overcast
12:15 PM 35.1 °F 26.4 °F 25.2 °F 67% 29.69 in 10.0 mi SE 12.7 mph 16.1 mph N/A   Mostly Cloudy
12:35 PM 36.1 °F 28.2 °F 25.3 °F 65% 29.66 in 10.0 mi ESE 11.5 mph - N/A   Overcast
12:55 PM 35.8 °F 27.8 °F 24.6 °F 64% 29.67 in 10.0 mi SSE 11.5 mph - N/A   Overcast
1:15 PM 37.2 °F 28.7 °F 24.6 °F 60% 29.66 in 10.0 mi ESE 13.8 mph 20.7 mph N/A   Overcast
1:35 PM 38.8 °F 31.6 °F 21.0 °F 49% 29.66 in 10.0 mi SSE 11.5 mph 19.6 mph N/A   Mostly Cloudy
1:55 PM 40.5 °F 31.5 °F 19.8 °F 44% 29.66 in 10.0 mi SSE 18.4 mph 23.0 mph N/A   Overcast
2:35 PM 43.3 °F 34.2 °F 19.2 °F 38% 29.67 in 10.0 mi SE 23.0 mph 27.6 mph N/A   Scattered Clouds
2:55 PM 37.4 °F 25.2 °F 21.2 °F 52% 29.69 in 10.0 mi WSW 28.8 mph 39.1 mph N/A   Mostly Cloudy
3:15 PM 35.1 °F 23.0 °F 20.1 °F 55% 29.71 in 10.0 mi West 24.2 mph 28.8 mph N/A   Overcast
3:35 PM 35.4 °F 24.6 °F 18.1 °F 49% 29.71 in 10.0 mi WSW 19.6 mph 34.5 mph N/A   Overcast
3:55 PM 36.9 °F 25.1 °F 14.5 °F 40% 29.72 in 10.0 mi West 25.3 mph 35.7 mph N/A   Overcast
4:15 PM 37.2 °F 27.3 °F 15.3 °F 41% 29.72 in 10.0 mi West 18.4 mph 25.3 mph N/A   Overcast
4:35 PM 36.5 °F 30.3 °F 15.8 °F 43% 29.72 in 10.0 mi NW 8.1 mph 21.9 mph N/A   Overcast
4:55 PM 34.7 °F 24.7 °F 19.0 °F 53% 29.74 in 10.0 mi North 16.1 mph 20.7 mph N/A   Overcast
5:15 PM 32.0 °F 23.6 °F 19.0 °F 59% 29.77 in 10.0 mi NNE 10.4 mph - N/A   Overcast
5:35 PM 32.0 °F 21.6 °F 18.1 °F 57% 29.77 in 10.0 mi NNE 15.0 mph 25.3 mph N/A   Overcast
5:55 PM 32.5 °F 24.2 °F 14.9 °F 48% 29.77 in 10.0 mi North 10.4 mph 28.8 mph N/A   Overcast
6:15 PM 31.8 °F 19.9 °F 17.4 °F 55% 29.78 in 10.0 mi NE 19.6 mph 23.0 mph N/A   Overcast
6:35 PM 28.0 °F 14.6 °F 15.8 °F 60% 29.78 in 10.0 mi NE 20.7 mph 28.8 mph N/A   Mostly Cloudy
6:55 PM 27.0 °F 12.5 °F 14.2 °F 59% 29.80 in 10.0 mi ENE 23.0 mph 28.8 mph N/A   Overcast
7:15 PM 26.2 °F 14.7 °F 13.3 °F 58% 29.82 in 10.0 mi ENE 13.8 mph 18.4 mph N/A   Overcast
7:35 PM 23.5 °F 15.4 °F 18.9 °F 82% 29.83 in 1.0 mi NE 6.9 mph - N/A Snow Snow
7:55 PM 22.1 °F 12.8 °F 19.2 °F 89% 29.84 in 0.8 mi NE 8.1 mph - N/A Snow Snow
8:15 PM 22.1 °F 14.7 °F 18.5 °F 86% 29.85 in 1.8 mi NE 5.8 mph - N/A Snow Light Snow
8:55 PM 21.2 °F 10.9 °F 17.2 °F 85% 29.87 in 1.8 mi ENE 9.2 mph - N/A Snow Light Snow
9:15 PM 20.1 °F 9.5 °F 16.3 °F 85% 29.88 in 1.5 mi ENE 9.2 mph - N/A Snow Light Snow
9:35 PM 19.4 °F - 15.6 °F 85% 29.90 in 2.0 mi Calm Calm - N/A Snow Light Snow
9:55 PM 19.2 °F 8.4 °F 13.1 °F 77% 29.92 in 2.5 mi NE 9.2 mph 17.3 mph N/A Snow Light Snow
10:15 PM 17.8 °F 5.9 °F 13.1 °F 82% 29.93 in 1.5 mi ENE 10.4 mph - N/A Snow Light Snow
10:35 PM 16.7 °F 5.3 °F 12.7 °F 84% 29.95 in 0.8 mi ENE 9.2 mph - N/A Snow Snow
10:55 PM 16.2 °F 6.5 °F 12.0 °F 84% 29.95 in 1.2 mi East 6.9 mph - N/A Snow Snow
11:15 PM 15.8 °F 10.2 °F 11.1 °F 82% 29.95 in 2.0 mi East 3.5 mph - N/A Snow Light Snow
11:35 PM 15.8 °F 10.2 °F 11.1 °F 82% 29.95 in 2.5 mi East 3.5 mph - N/A Snow Light Snow
11:55 PM 16.2 °F - 11.5 °F 82% 29.95 in 2.0 mi Calm Calm - N/A Snow Light Snow